Location: Unspecified
(42.9300°N, 71.1866°W)
Time: 11:33:58
(UTC-04:00)

Cosmos 1674 - Visible Passes

Search period start: 26 April 2018 00:00
Search period end: 06 May 2018 00:00
Orbit: 496 x 522 km, 82.5° (Epoch: 25 April)

Date Brightness Start Highest point End Pass type
(mag) Time Alt. Az. Time Alt. Az. Time Alt. Az.
26 Apr 5.4 04:35:19 10° SE 04:38:05 20° E 04:40:52 10° NE visible
27 Apr 5.6 04:18:48 10° SE 04:21:04 15° E 04:23:21 10° NE visible
28 Apr 5.8 04:02:33 10° ESE 04:04:04 12° E 04:05:34 10° ENE visible
30 Apr 2.6 05:01:12 10° SSW 05:04:58 77° W 05:08:44 10° N visible
01 May 2.7 04:44:07 10° S 04:47:52 81° E 04:51:38 10° N visible
02 May 3.2 04:27:05 10° S 04:30:47 61° E 04:34:29 10° NNE visible
03 May 3.7 04:10:07 10° SSE 04:13:42 45° E 04:17:18 10° NNE visible
04 May 4.2 03:53:13 10° SSE 03:56:38 34° E 04:00:03 10° NNE visible
05 May 4.6 03:36:24 10° SSE 03:39:35 27° E 03:42:46 10° NNE visible
